TimeEST,TemperatureF,Dew PointF,Humidity,Sea Level PressureIn,VisibilityMPH,Wind Direction,Wind SpeedMPH,Gust SpeedMPH,PrecipitationIn,Events,Conditions,WindDirDegrees,DateUTC
12:53 AM,32.0,21.9,66,30.34,10.0,NNW,4.6,-,N/A,,Clear,340,2012-12-06 05:53:00
1:53 AM,30.9,21.9,69,30.35,10.0,SW,3.5,-,N/A,,Clear,230,2012-12-06 06:53:00
2:53 AM,30.0,21.9,72,30.36,10.0,Calm,Calm,-,N/A,,Clear,0,2012-12-06 07:53:00
3:53 AM,28.0,21.0,75,30.36,10.0,NNW,3.5,-,N/A,,Clear,330,2012-12-06 08:53:00
4:53 AM,28.0,21.0,75,30.37,10.0,North,5.8,-,N/A,,Clear,350,2012-12-06 09:53:00
5:53 AM,28.0,19.9,72,30.38,10.0,Calm,Calm,-,N/A,,Clear,0,2012-12-06 10:53:00
6:53 AM,26.1,19.9,78,30.40,10.0,WNW,3.5,-,N/A,,Clear,300,2012-12-06 11:53:00
7:53 AM,27.0,19.0,72,30.40,10.0,NNE,6.9,-,N/A,,Clear,20,2012-12-06 12:53:00
8:53 AM,32.0,21.0,64,30.40,10.0,Variable,3.5,-,N/A,,Clear,0,2012-12-06 13:53:00
9:53 AM,34.0,19.9,56,30.42,10.0,North,5.8,-,N/A,,Clear,350,2012-12-06 14:53:00
10:53 AM,35.1,21.0,57,30.40,10.0,Calm,Calm,-,N/A,,Clear,0,2012-12-06 15:53:00
11:53 AM,36.0,21.0,55,30.36,10.0,South,3.5,-,N/A,,Clear,170,2012-12-06 16:53:00
12:53 PM,37.9,21.9,53,30.32,10.0,Calm,Calm,-,N/A,,Clear,0,2012-12-06 17:53:00
1:53 PM,39.9,21.9,49,30.30,10.0,SSE,5.8,-,N/A,,Clear,160,2012-12-06 18:53:00
2:53 PM,39.9,21.9,49,30.28,10.0,South,4.6,-,N/A,,Clear,180,2012-12-06 19:53:00
3:53 PM,39.9,21.9,49,30.29,10.0,Calm,Calm,-,N/A,,Clear,0,2012-12-06 20:53:00
4:53 PM,37.9,21.9,53,30.29,10.0,SSE,5.8,-,N/A,,Clear,150,2012-12-06 21:53:00
5:53 PM,36.0,21.9,57,30.29,10.0,SSE,4.6,-,N/A,,Clear,160,2012-12-06 22:53:00
6:53 PM,36.0,21.9,57,30.28,10.0,ESE,4.6,-,N/A,,Clear,120,2012-12-06 23:53:00
7:53 PM,35.1,21.9,59,30.27,10.0,ESE,3.5,-,N/A,,Clear,110,2012-12-07 00:53:00
8:53 PM,36.0,21.9,57,30.27,10.0,SE,4.6,-,N/A,,Clear,140,2012-12-07 01:53:00
9:53 PM,34.0,21.9,61,30.27,10.0,East,3.5,-,N/A,,Clear,100,2012-12-07 02:53:00
10:53 PM,35.1,23.0,61,30.26,10.0,South,4.6,-,N/A,,Clear,170,2012-12-07 03:53:00
11:53 PM,36.0,23.0,59,30.25,10.0,South,4.6,-,N/A,,Mostly Cloudy,180,2012-12-07 04:53:00